Stations météo

réclame
Mon MeteoGroup
Lahr, Allemagne (10805): Température de l'air & dewpoint: 13.06.2018 22:00:00 - 19.06.2018 22:00:00 (CEST)Lahr, Allemagne (10805): Température de l'air 5cm & Température de l'air -5cm: 13.06.2018 22:00:00 - 19.06.2018 22:00:00 (CEST)Lahr, Allemagne (10805): Température de l'air -20cm & Température de l'air -100cm: 13.06.2018 22:00:00 - 19.06.2018 22:00:00 (CEST)Lahr, Allemagne (10805): Vitesse du vent & gusts: 13.06.2018 22:00:00 - 19.06.2018 22:00:00 (CEST)Lahr, Allemagne (10805): Direction du vent: 13.06.2018 22:00:00 - 19.06.2018 22:00:00 (CEST)Lahr, Allemagne (10805): reduced air pressure: 13.06.2018 22:00:00 - 19.06.2018 22:00:00 (CEST)Lahr, Allemagne (10805): visibility: 13.06.2018 22:00:00 - 19.06.2018 22:00:00 (CEST)Lahr, Allemagne (10805): Ensoleillement: 13.06.2018 22:00:00 - 19.06.2018 22:00:00 (CEST)Lahr, Allemagne (10805): Quantités de précipitations: 13.06.2018 22:00:00 - 19.06.2018 22:00:00 (CEST)
Date & Time tt [°C] td [°C] tt 5cm [°C] tt -5cm [°C] tt -20cm [°C] tt -100cm [°C] ff [km/h] ff [knt] fx [km/h] fx [knt] dd ppp [hPa] vv [km] sd [min] rr [mm]
19.06.2018 22:00:00 20,4 16,1 18,7 24,9 26,1 18,7 11 6 13 7 NNE 1022,5 40 0 0,0
19.06.2018 21:00:00 23,0 16,0 21,9 26,9 26,4 18,7 10 5 19 11 NNE 1022,3 70 58 0,0
19.06.2018 20:00:00 24,9 16,0 24,8 29,2 26,5 18,7 14 8 24 13 NE 1022,4 58 60 0,0
19.06.2018 19:00:00 26,1 15,7 26,9 31,6 26,4 18,7 14 8 20 11 NNE 1022,4 59 60 0,0
19.06.2018 18:00:00 26,5 15,3 28,6 33,8 26,1 18,7 11 6 21 11 N 1022,6 47 60 0,0
19.06.2018 17:00:00 26,1 13,9 30,0 35,7 25,5 18,7 11 6 18 10 NW 1023,0 48 60 0,0
19.06.2018 16:00:00 26,3 15,0 31,6 36,9 24,8 18,7 8 5 17 9 WNW 1023,2 60 60 0,0
19.06.2018 15:00:00 25,4 13,5 30,9 36,7 24,1 18,6 7 4 16 9 NE 1023,6 34 60 0,0
19.06.2018 14:00:00 24,4 14,1 28,8 36,0 23,2 18,6 10 5 19 10 NNW 1024,1 41 56 0,0
19.06.2018 13:00:00 24,2 13,5 31,0 35,1 22,4 18,6 6 3 18 10 WNW 1024,5 70 59 0,0
19.06.2018 12:00:00 23,6 13,0 30,6 32,7 21,6 18,6 5 3 14 8 SW 1024,5 45 55 0,0
19.06.2018 11:00:00 22,8 14,0 29,7 29,9 21,1 18,6 6 3 17 9 SW 1024,9 56 60 0,0
19.06.2018 10:00:00 21,7 14,7 26,2 25,9 20,8 18,6 10 6 16 9 S 1025,2 40 60 0,0
19.06.2018 09:00:00 19,9 14,3 23,3 22,9 20,8 18,6 8 4 14 8 SW 1025,4 42 33 0,0
19.06.2018 08:00:00 18,3 14,2 19,2 19,7 20,9 18,6 9 5 12 7 SSW 1025,2 10 2 0,0
19.06.2018 07:00:00 17,5 14,0 17,6 18,6 21,1 18,6 6 3 11 6 S 1025,1 34 0 0,0
19.06.2018 06:00:00 17,2 14,0 16,7 18,5 21,3 18,6 5 3 9 5 S 1024,9 34 0 0,0
19.06.2018 05:00:00 16,0 14,4 15,8 18,4 21,5 18,6 0 0 2 1 N 1024,6 21 0 0,0
19.06.2018 04:00:00 15,3 13,5 14,7 18,1 21,9 18,6 0 0 6 3 N 1024,6 24 0 0,0
19.06.2018 03:00:00 15,4 13,3 15,1 18,3 22,2 18,6 4 2 6 3 SSE 1024,4 32 0 0,0
19.06.2018 02:00:00 14,5 12,7 12,7 18,4 22,7 18,6 6 3 8 5 W 1024,3 31 0 0,0
19.06.2018 01:00:00 15,0 13,3 13,3 19,0 23,1 18,6 5 3 7 4 E 1024,2 33 0 0,0
19.06.2018 00:00:00 15,9 13,2 13,5 20,0 23,6 18,6 5 3 6 3 NE 1024,0 39 0 0,0
18.06.2018 23:00:00 16,8 13,4 14,1 21,1 24,0 18,6 3 2 7 4 NNE 1023,6 43 0 0,0
18.06.2018 22:00:00 18,5 13,9 15,7 22,7 24,4 18,6 5 3 8 5 ENE 1023,1 46 0 0,0
18.06.2018 21:00:00 20,3 14,2 19,4 24,4 24,7 18,6 8 4 18 10 NE 1022,4 50 57 0,0
18.06.2018 20:00:00 22,3 13,3 22,1 26,5 24,8 18,6 15 8 24 13 NNE 1022,2 10 27 0,0
18.06.2018 19:00:00 22,7 13,1 23,0 28,7 24,7 18,6 13 7 19 11 N 1022,2 10 23 0,0
18.06.2018 18:00:00 23,8 12,6 26,0 30,6 24,5 18,6 11 6 14 7 NNW 1021,9 10 13 0,0
18.06.2018 17:00:00 24,5 12,2 29,7 32,3 24,1 18,5 7 4 19 10 NW 1022,0 56 49 0,0
18.06.2018 16:00:00 24,3 13,3 30,0 32,2 23,7 18,5 5 3 15 8 NNW 1022,0 55 13 0,0
18.06.2018 15:00:00 23,2 11,1 28,7 32,4 23,1 18,5 8 4 18 10 W 1022,3 59 25 0,0
18.06.2018 14:00:00 23,1 11,0 27,0 34,5 22,2 18,5 9 5 19 10 - 1022,4 10 50 0,0
18.06.2018 13:00:00 22,4 11,0 31,0 33,5 21,5 18,5 7 4 19 10 W 1022,8 43 58 0,0
18.06.2018 12:00:00 20,8 11,0 25,3 29,4 20,8 18,5 4 2 16 9 - 1023,0 10 42 0,0
18.06.2018 11:00:00 21,1 11,0 27,7 28,5 20,3 18,5 7 4 14 7 WSW 1023,0 41 54 0,0
18.06.2018 10:00:00 20,1 10,4 25,3 25,2 20,0 18,5 5 3 11 6 S 1023,0 10 60 0,0
18.06.2018 09:00:00 18,6 12,9 22,4 21,4 19,9 18,5 8 4 10 5 SSW 1023,0 10 60 0,0
18.06.2018 08:00:00 18,4 12,4 18,8 18,7 20,1 18,5 0 0 3 2 N 1022,9 28 60 0,0
18.06.2018 07:00:00 15,2 12,7 15,7 16,8 20,3 18,5 3 1 4 2 W 1022,7 21 35 0,0
18.06.2018 06:00:00 13,2 12,4 11,2 16,3 20,6 18,5 0 0 4 2 N 1022,9 13 0 0,0
18.06.2018 05:00:00 14,1 12,9 12,4 17,1 20,9 18,5 2 1 6 3 NNE 1022,5 19 0 0,0
18.06.2018 04:00:00 14,6 13,3 13,9 17,7 21,2 18,5 0 0 4 2 N 1022,5 17 0 0,0
18.06.2018 03:00:00 14,8 13,6 13,4 18,1 21,5 18,5 2 1 4 2 ENE 1022,4 16 0 0,0
18.06.2018 02:00:00 16,1 13,8 14,9 18,7 21,8 18,5 2 1 6 3 ENE 1022,2 28 0 0,0
18.06.2018 01:00:00 16,5 13,5 15,0 19,0 22,1 18,4 3 2 4 2 SW 1022,2 31 0 0,0
18.06.2018 00:00:00 16,6 13,4 15,1 19,4 22,4 18,4 3 2 6 3 E 1021,8 26 0 0,0
17.06.2018 23:00:00 16,8 13,3 15,3 20,1 22,8 18,4 4 2 10 5 ENE 1021,4 32 0 0,0
17.06.2018 22:00:00 17,5 12,6 16,2 21,1 23,0 18,4 8 4 21 11 N 1021,1 43 0 0,0
17.06.2018 21:00:00 19,8 12,5 19,5 22,6 23,2 18,4 16 9 26 14 N 1020,3 38 0 0,0
17.06.2018 20:00:00 20,8 13,2 20,9 24,1 23,4 18,4 11 6 19 10 N 1019,3 41 0 0,0
17.06.2018 19:00:00 21,5 13,0 22,1 25,3 23,4 18,4 10 5 16 9 NW 1018,7 51 0 0,0
17.06.2018 18:00:00 22,1 12,5 23,7 26,3 23,4 18,4 5 3 11 6 WNW 1018,6 10 0 0,0
17.06.2018 17:00:00 22,1 12,9 23,6 26,7 23,3 18,4 7 4 16 9 WNW 1018,6 46 0 0,0
17.06.2018 16:00:00 22,7 12,5 25,7 28,4 23,1 18,4 5 3 13 7 WNW 1018,3 48 4 0,0
17.06.2018 15:00:00 22,3 12,7 24,6 27,9 22,7 18,4 6 4 15 8 WNW 1018,5 54 0 0,0
17.06.2018 14:00:00 22,4 11,0 25,8 31,4 22,2 18,4 6 3 15 8 NW 1018,5 53 39 0,0
17.06.2018 13:00:00 21,8 12,4 27,5 29,6 21,7 18,4 9 5 17 9 W 1018,7 45 18 0,0
17.06.2018 12:00:00 21,3 13,9 25,5 25,4 21,5 18,4 7 4 14 7 WSW 1018,9 38 0 0,0
17.06.2018 11:00:00 21,0 13,1 23,7 24,9 21,2 18,4 4 2 12 6 - 1018,9 10 0 0,0
17.06.2018 10:00:00 20,3 12,6 22,1 24,7 21,0 18,4 9 5 15 8 NNW 1019,0 10 31 0,0
17.06.2018 09:00:00 20,1 12,4 22,4 23,3 21,0 18,4 11 6 14 8 NNW 1018,8 10 60 0,0
17.06.2018 08:00:00 19,8 14,6 20,7 20,1 21,1 18,3 4 2 9 5 ENE 1018,2 30 40 0,0
17.06.2018 07:00:00 16,9 15,2 16,7 18,4 21,4 18,3 5 3 8 4 E 1018,1 20 4 0,0
17.06.2018 06:00:00 15,7 14,6 15,4 18,3 21,7 18,3 4 2 6 3 ENE 1018,0 22 0 0,0
17.06.2018 05:00:00 17,2 14,7 14,7 19,1 21,9 18,3 5 3 6 3 W 1017,6 34 0 0,0
17.06.2018 04:00:00 17,9 14,9 17,1 19,6 22,2 18,3 5 3 11 6 ENE 1017,1 37 0 0,0
17.06.2018 03:00:00 18,4 15,4 17,9 20,2 22,5 18,3 9 5 11 6 ENE 1017,0 36 0 0,0
17.06.2018 02:00:00 18,6 15,2 18,1 20,3 22,9 18,3 6 4 12 7 NE 1017,0 44 0 0,0
17.06.2018 01:00:00 18,7 15,1 17,7 20,7 23,3 18,3 6 3 14 8 ENE 1016,9 37 0 0,0
17.06.2018 00:00:00 18,8 15,0 17,0 21,2 23,7 18,3 6 3 10 6 E 1016,4 35 0 0,0
16.06.2018 23:00:00 19,3 15,7 18,3 22,3 24,1 18,3 6 3 14 8 NE 1015,9 26 0 0,0
16.06.2018 22:00:00 20,9 14,3 17,8 23,9 24,4 18,3 2 1 6 3 NNE 1014,9 20 0 0,0
16.06.2018 21:00:00 24,3 13,4 21,4 25,9 24,5 18,3 4 2 10 5 NW 1014,3 43 48 0,0
16.06.2018 20:00:00 25,0 13,2 24,7 27,3 24,5 18,3 6 4 13 7 NW 1014,0 47 57 0,0
16.06.2018 19:00:00 25,6 11,8 26,4 29,5 24,3 18,3 7 4 13 7 NW 1013,7 52 60 0,0
16.06.2018 18:00:00 25,8 11,2 27,9 31,4 23,9 18,3 8 5 14 7 NNW 1013,8 65 60 0,0
16.06.2018 17:00:00 26,0 12,0 29,7 32,7 23,3 18,3 5 3 14 7 N 1014,2 36 60 0,0
16.06.2018 16:00:00 25,3 11,0 30,0 33,2 22,7 18,3 6 4 16 9 NW 1014,4 42 60 0,0
16.06.2018 15:00:00 24,6 13,3 28,7 32,7 22,0 18,3 8 4 16 9 N 1014,8 32 60 0,0
16.06.2018 14:00:00 24,3 11,7 29,7 31,4 21,2 18,3 5 3 11 6 WNW 1015,0 10 56 0,0
16.06.2018 13:00:00 23,3 12,5 30,4 31,4 20,4 18,3 6 3 12 6 WNW 1015,6 32 60 0,0
16.06.2018 12:00:00 22,7 12,7 28,6 29,2 19,8 18,3 4 2 10 5 S 1016,0 39 60 0,0
16.06.2018 11:00:00 21,0 13,5 26,0 24,8 19,4 18,3 4 2 11 6 SSE 1016,2 18 20 0,0
16.06.2018 10:00:00 18,9 13,5 21,4 21,1 19,3 18,3 4 2 8 4 WSW 1016,6 20 0 0,0
16.06.2018 09:00:00 17,6 13,5 19,7 19,2 19,3 18,3 4 2 6 3 W 1016,4 17 0 0,0
16.06.2018 08:00:00 16,1 13,1 16,7 17,4 19,4 18,3 4 2 8 5 SSW 1016,2 14 0 0,0
16.06.2018 07:00:00 14,4 12,7 14,2 16,2 19,6 18,3 3 1 5 3 NNW 1016,3 9 28 0,0
16.06.2018 06:00:00 12,5 12,0 10,7 15,1 20,0 18,3 4 2 5 3 N 1016,2 7 0 0,0
16.06.2018 05:00:00 12,6 11,9 10,4 15,5 20,4 18,3 3 2 8 4 NW 1016,0 6 0 0,0
16.06.2018 04:00:00 13,4 12,8 11,0 16,0 20,7 18,3 3 1 8 4 N 1016,1 9 0 0,0
16.06.2018 03:00:00 13,2 12,5 11,9 16,7 21,1 18,3 2 1 4 2 NNE 1016,2 9 0 0,0
16.06.2018 02:00:00 14,5 13,4 11,7 17,4 21,6 18,3 0 0 5 3 N 1016,4 13 0 0,0
16.06.2018 01:00:00 15,2 13,0 12,2 18,2 22,0 18,3 3 1 7 4 S 1016,5 16 0 0,0
16.06.2018 00:00:00 16,7 13,7 14,3 19,2 22,4 18,3 5 3 11 6 NE 1016,4 18 0 0,0
15.06.2018 23:00:00 17,7 13,6 15,4 20,4 22,8 18,3 7 4 15 8 N 1016,5 21 0 0,0
15.06.2018 22:00:00 18,5 14,1 17,3 21,6 23,1 18,3 11 6 13 7 NNE 1016,3 24 0 0,0
15.06.2018 21:00:00 20,5 13,7 19,3 23,0 23,4 18,3 10 5 21 11 NNE 1015,8 31 52 0,0
15.06.2018 20:00:00 22,4 13,0 22,0 24,7 23,5 18,4 16 9 23 12 N 1015,6 10 60 0,0
15.06.2018 19:00:00 23,1 12,9 23,7 26,7 23,4 18,4 17 9 25 13 N 1015,3 24 60 0,0
15.06.2018 18:00:00 23,5 13,6 25,2 28,7 23,1 18,4 15 8 26 14 N 1015,2 10 60 0,0
15.06.2018 17:00:00 23,8 13,0 26,3 30,6 22,7 18,4 13 7 28 15 N 1015,3 24 60 0,0
15.06.2018 16:00:00 23,5 12,2 27,3 31,4 22,0 18,4 11 6 20 11 NNW 1015,7 10 55 0,0
15.06.2018 15:00:00 23,1 12,3 28,0 31,9 21,3 18,4 10 5 19 10 N 1015,9 30 60 0,0
15.06.2018 14:00:00 22,0 10,9 26,7 30,9 20,6 18,4 8 5 19 10 NNE 1016,2 35 60 0,0
15.06.2018 13:00:00 22,1 12,8 26,7 29,6 20,0 18,4 8 4 18 10 NE 1016,4 25 51 0,0
15.06.2018 12:00:00 20,6 11,8 23,7 26,2 19,5 18,4 8 4 16 8 NNW 1016,7 37 20 0,0
15.06.2018 11:00:00 20,2 12,8 23,8 25,9 19,0 18,4 8 4 16 9 N 1017,1 10 58 0,0
15.06.2018 10:00:00 18,7 12,6 22,2 23,8 18,7 18,4 8 4 13 7 N 1017,3 23 58 0,0
15.06.2018 09:00:00 18,0 12,5 21,0 20,4 18,6 18,4 4 2 9 5 - 1017,2 10 59 0,0
15.06.2018 08:00:00 15,6 13,2 16,5 17,8 18,6 18,4 5 3 6 4 ENE 1017,1 13 18 0,0
15.06.2018 07:00:00 14,6 13,5 14,6 16,1 18,8 18,4 3 2 4 2 ENE 1016,9 10 0 0,0
15.06.2018 06:00:00 13,8 12,2 12,6 15,6 19,1 18,4 3 2 5 3 NW 1017,1 15 0 0,0
15.06.2018 05:00:00 13,7 12,0 12,6 15,8 19,3 18,5 4 2 8 4 N 1017,0 16 0 0,0
15.06.2018 04:00:00 14,0 12,6 13,1 16,2 19,6 18,5 5 3 8 4 ENE 1017,4 11 0 0,0
15.06.2018 03:00:00 14,0 12,9 13,2 16,6 19,8 18,5 6 4 11 6 ENE 1017,7 11 0 0,0
15.06.2018 02:00:00 14,8 12,8 14,0 17,1 20,1 18,5 5 3 19 10 N 1017,7 15 0 0,0
15.06.2018 01:00:00 14,8 12,8 13,7 17,6 20,4 18,5 4 2 5 3 N 1017,6 17 0 0,0
15.06.2018 00:00:00 15,8 12,3 14,6 18,1 20,7 18,5 4 2 5 3 SSE 1017,7 20 0 0,0
14.06.2018 23:00:00 16,1 12,6 14,5 18,8 21,0 18,5 0 0 5 3 N 1017,3 22 0 0,0
14.06.2018 22:00:00 17,5 11,7 15,1 19,7 21,3 18,5 2 1 9 5 ENE 1016,8 25 0 0,0
14.06.2018 21:00:00 17,9 13,4 17,0 21,2 21,5 18,5 5 3 14 7 NE 1016,0 24 0 0,0
14.06.2018 20:00:00 19,5 10,5 18,7 22,8 21,5 18,6 9 5 12 6 N 1015,5 41 12 0,0
14.06.2018 19:00:00 20,9 9,9 21,2 24,9 21,3 18,6 5 3 12 6 N 1015,1 42 49 0,0
14.06.2018 18:00:00 21,4 8,8 23,7 27,3 20,9 18,6 8 4 14 8 NNW 1015,2 10 60 0,0
14.06.2018 17:00:00 21,2 8,4 24,0 27,9 20,4 18,6 6 4 17 9 WNW 1015,1 38 60 0,0
14.06.2018 16:00:00 20,7 8,7 24,4 27,9 19,9 18,6 8 4 19 11 - 1015,6 10 56 0,0
14.06.2018 15:00:00 20,2 8,7 22,8 27,3 19,3 18,6 4 2 17 9 NW 1016,0 42 50 0,0
14.06.2018 14:00:00 19,6 8,9 25,0 26,4 18,7 18,6 11 6 22 12 NW 1016,3 10 38 0,0
14.06.2018 13:00:00 20,0 8,9 24,7 25,6 18,0 18,6 6 3 16 8 SSW 1016,4 24 49 0,0
14.06.2018 12:00:00 18,6 8,2 21,7 21,3 17,6 18,6 8 4 18 10 NE 1016,6 34 52 0,0
14.06.2018 11:00:00 17,1 8,3 18,9 19,7 17,2 18,6 9 5 12 7 NNE 1017,0 40 1 0,0
14.06.2018 10:00:00 16,0 9,7 16,7 20,0 16,8 18,7 5 3 9 5 NE 1017,3 26 47 0,0
14.06.2018 09:00:00 15,8 9,6 18,0 17,7 16,6 18,7 2 1 6 4 - 1017,2 10 60 0,0
14.06.2018 08:00:00 15,8 10,9 15,5 14,6 16,7 18,7 0 0 4 2 N 1017,4 10 60 0,0
14.06.2018 07:00:00 11,8 9,6 11,0 12,3 17,0 18,7 3 1 5 3 E 1017,4 13 39 0,0
14.06.2018 06:00:00 9,4 8,9 8,0 11,8 17,3 18,7 4 2 6 3 E 1017,7 10 0 0,0
14.06.2018 05:00:00 9,4 8,7 7,0 12,4 17,6 18,7 3 2 5 3 NNW 1017,6 18 0 0,0
14.06.2018 04:00:00 10,0 9,4 8,3 13,3 17,9 18,7 0 0 8 4 N 1017,5 11 0 0,0
14.06.2018 03:00:00 12,0 10,4 10,7 14,2 18,1 18,7 2 1 8 5 S 1017,4 20 0 0,0
14.06.2018 02:00:00 13,3 10,9 10,9 14,6 18,4 18,7 3 2 9 5 SSW 1017,6 27 0 0,0
14.06.2018 01:00:00 13,1 10,9 12,2 15,1 18,6 18,7 8 5 11 6 NNE 1017,7 26 0 0,0
14.06.2018 00:00:00 14,1 11,1 13,6 15,7 18,8 18,7 8 5 10 5 NNE 1017,9 35 0 0,0
13.06.2018 23:00:00 14,6 11,0 14,1 15,9 19,0 18,7 7 4 13 7 NNE 1017,7 37 0 0,0
13.06.2018 22:00:00 15,4 10,6 14,9 16,4 19,2 18,7 8 5 12 6 N 1017,5 42 0 0,0

tt = Température de l'air
td = dewpoint
tt 5cm = Température de l'air 5cm
tt -5cm = Température de l'air -5cm
tt -20cm = Température de l'air -20cm
tt -100cm = Température de l'air -100cm
ff = Vitesse du vent
fx = gusts
dd = Direction du vent
ppp = reduced air pressure
vv = visibility
sd = Ensoleillement
rr = Quantités de précipitations

stations d'obs. à proximité